This is the latest recevied weather packets stored in our database for station/object DC4XK-10. If no packets are shown the sender has not sent any weather packets the latest 10 day(s).
| Time | Temp. | Humidity | Pressure | Rain* | Wind** | Luminosity | Snow |
|---|---|---|---|---|---|---|---|
| 1777642733 | 23.89° C | 35% | 1025.1 hPa | 0 mm | 0 m/s | - | - |
| 1777642131 | 24.44° C | 33% | 1025.5 hPa | 0 mm | 0 m/s | - | - |
| 1777641531 | 23.33° C | 35% | 1025.4 hPa | 0 mm | 0.89 m/s, 176° | - | - |
| 1777640933 | 22.78° C | 34% | 1025.7 hPa | 0 mm | 0 m/s | - | - |
| 1777640331 | 22.78° C | 34% | 1025.8 hPa | 0 mm | 0 m/s | - | - |
| 1777639731 | 23.89° C | 36% | 1026 hPa | 0 mm | 0 m/s | - | - |
| 1777639133 | 23.33° C | 36% | 1026.1 hPa | 0 mm | 0 m/s | - | - |
| 1777638530 | 24.44° C | 34% | 1026.3 hPa | 0 mm | 0 m/s | - | - |
| 1777637931 | 22.78° C | 36% | 1026.1 hPa | 0 mm | 0 m/s | - | - |
| 1777637333 | 23.33° C | 36% | 1026.1 hPa | 0 mm | 0 m/s | - | - |
| 1777636731 | 24.44° C | 34% | 1026.4 hPa | 0 mm | 0.45 m/s, 108° | - | - |
| 1777636130 | 21.67° C | 37% | 1026.3 hPa | 0 mm | 0.45 m/s, 212° | - | - |
| 1777635531 | 22.78° C | 36% | 1026.5 hPa | 0 mm | 0.89 m/s, 138° | - | - |
| 1777634931 | 22.22° C | 37% | 1026.7 hPa | 0 mm | 1.34 m/s, 185° | - | - |
| 1777634330 | 22.78° C | 37% | 1026.8 hPa | 0 mm | 0 m/s | - | - |
| 1777633731 | 22.78° C | 36% | 1026.9 hPa | 0 mm | 1.34 m/s, 215° | - | - |
| 1777633131 | 22.78° C | 37% | 1026.9 hPa | 0 mm | 0.89 m/s, 225° | - | - |
| 1777632531 | 22.22° C | 39% | 1027.3 hPa | 0 mm | 0 m/s | - | - |
| 1777631931 | 21.11° C | 40% | 1027.1 hPa | 0 mm | 0 m/s | - | - |
| 1777631331 | 21.67° C | 39% | 1027.3 hPa | 0 mm | 0.45 m/s, 152° | - | - |
| 1777630732 | 21.67° C | 37% | 1027.3 hPa | 0 mm | 3.13 m/s, 180° | - | - |
| 1777630131 | 21.11° C | 40% | 1027.4 hPa | 0 mm | 0 m/s | - | - |
| 1777629531 | 20.56° C | 41% | 1027.3 hPa | 0 mm | 0 m/s | - | - |
| 1777628933 | 21.11° C | 40% | 1027.6 hPa | 0 mm | 1.79 m/s, 186° | - | - |
| 1777628330 | 18.89° C | 44% | 1027.6 hPa | 0 mm | 0.45 m/s, 197° | - | - |
* Rain latest hour (hover to see other rain measurements)
** Current wind speed in m/s (hover to see current wind gust speed)